Tracking 18793 objects as of 24-September-2017
HD Live streaming from Space Station
objects crossing your sky now

FLOCK 3P 74

Track FLOCK 3P 74 now!
10-day predictions
FLOCK 3P 74 is classified as:


NORAD ID: 42048
Int'l Code: 2017-008DE
Perigee: 498.1 km
Apogee: 509.3 km
Inclination: 97.5 °
Period: 94.5 minutes
Semi major axis: 6874 km
RCS: Unknown
Launch date: February 15, 2017
Source: United States (US)
Launch site: SIRHARIKOTA (SRI)
aabbcc
Your satellite tracking list
Your tracking list is empty





NASA's NSSDC Master Catalog

Two Line Element Set (TLE):
1 42048U 17008DE  17266.80386319  .00002896  00000-0  12584-3 0  9992
2 42048  97.4886 327.9303 0008190 200.0747 160.0168 15.23084652 32707
Source of the keplerian elements: AFSPC